�������l�o���
Date,Time,MP-1(��Sv/h),MP-2(��Sv/h),MP-3(��Sv/h),MP-4(��Sv/h),MP-5(��Sv/h),MP-6(��Sv/h),MP-7(��Sv/h),MP-8(��Sv/h),����,����(m/s),���J
2020/04/15,00:00,0.683,0.978,0.647,1.183,0.830,0.390,0.684,0.650,��,1.7,��
2020/04/15,00:10,0.682,0.977,0.646,1.181,0.832,0.392,0.683,0.650,���k��,2.6,��
2020/04/15,00:20,0.681,0.977,0.646,1.179,0.832,0.392,0.685,0.651,��,3.6,��
2020/04/15,00:30,0.681,0.976,0.646,1.180,0.831,0.390,0.684,0.651,���k��,5.7,��
2020/04/15,00:40,0.680,0.977,0.648,1.181,0.831,0.393,0.684,0.652,��,4.5,��
2020/04/15,00:50,0.681,0.977,0.646,1.181,0.831,0.392,0.684,0.650,���k��,4.3,��
2020/04/15,01:00,0.680,0.976,0.647,1.181,0.830,0.390,0.682,0.651,���k��,3.6,��
2020/04/15,01:10,0.681,0.975,0.646,1.183,0.831,0.391,0.685,0.652,���k��,5.6,��
2020/04/15,01:20,0.681,0.976,0.647,1.182,0.831,0.393,0.685,0.651,���k��,6.0,��
2020/04/15,01:30,0.683,0.976,0.646,1.184,0.830,0.391,0.683,0.651,�k��,4.9,��
2020/04/15,01:40,0.683,0.975,0.648,1.182,0.832,0.392,0.685,0.652,�k��,5.6,��
2020/04/15,01:50,0.682,0.976,0.646,1.181,0.832,0.391,0.684,0.651,�k��,5.5,��
2020/04/15,02:00,0.681,0.975,0.648,1.181,0.833,0.391,0.684,0.650,�k��,5.3,��
2020/04/15,02:10,0.681,0.977,0.648,1.184,0.833,0.392,0.683,0.652,�k��,5.9,��
2020/04/15,02:20,0.680,0.975,0.648,1.183,0.832,0.392,0.684,0.650,�k��,6.3,��
2020/04/15,02:30,0.681,0.977,0.647,1.182,0.831,0.392,0.684,0.650,�k��,5.2,��
2020/04/15,02:40,0.681,0.975,0.648,1.182,0.832,0.392,0.684,0.649,���k��,5.8,��
2020/04/15,02:50,0.679,0.976,0.647,1.182,0.832,0.391,0.683,0.653,�k��,6.2,��
2020/04/15,03:00,0.682,0.977,0.647,1.184,0.831,0.392,0.685,0.649,���k��,6.9,��
2020/04/15,03:10,0.682,0.975,0.647,1.181,0.833,0.391,0.685,0.649,���k��,7.0,��
2020/04/15,03:20,0.680,0.977,0.648,1.181,0.831,0.392,0.685,0.650,�k��,7.0,��
2020/04/15,03:30,0.680,0.974,0.647,1.183,0.833,0.392,0.684,0.650,�k��,5.7,��
2020/04/15,03:40,0.680,0.974,0.648,1.184,0.833,0.393,0.686,0.650,�k��,7.3,��
2020/04/15,03:50,0.680,0.977,0.648,1.183,0.833,0.392,0.686,0.652,�k��,5.6,��
2020/04/15,04:00,0.681,0.977,0.647,1.181,0.833,0.391,0.684,0.651,�k��,6.7,��
2020/04/15,04:10,0.682,0.976,0.647,1.184,0.832,0.391,0.683,0.652,���k��,7.7,��
2020/04/15,04:20,0.680,0.977,0.648,1.183,0.833,0.391,0.684,0.650,���k��,8.3,��
2020/04/15,04:30,0.680,0.976,0.647,1.182,0.832,0.391,0.684,0.651,���k��,7.5,��
2020/04/15,04:40,0.681,0.976,0.647,1.184,0.833,0.392,0.684,0.651,���k��,6.0,��
2020/04/15,04:50,0.681,0.975,0.647,1.181,0.835,0.391,0.685,0.650,�k��,7.0,��
2020/04/15,05:00,0.681,0.976,0.648,1.181,0.833,0.391,0.684,0.650,���k��,7.4,��
2020/04/15,05:10,0.680,0.974,0.647,1.182,0.834,0.390,0.684,0.652,���k��,8.1,��
2020/04/15,05:20,0.679,0.977,0.648,1.183,0.835,0.390,0.684,0.652,��,7.8,��
2020/04/15,05:30,0.682,0.977,0.648,1.182,0.833,0.392,0.684,0.651,��,7.4,��
2020/04/15,05:40,0.678,0.977,0.647,1.183,0.834,0.391,0.684,0.650,��,6.4,��
2020/04/15,05:50,0.681,0.975,0.650,1.183,0.835,0.390,0.685,0.651,��,5.1,��
2020/04/15,06:00,0.680,0.977,0.646,1.182,0.834,0.391,0.685,0.653,���쐼,5.4,��
2020/04/15,06:10,0.680,0.976,0.645,1.185,0.834,0.391,0.686,0.651,���쐼,6.6,��
2020/04/15,06:20,0.681,0.977,0.649,1.183,0.833,0.392,0.686,0.651,���쐼,5.9,��
2020/04/15,06:30,0.680,0.977,0.648,1.182,0.833,0.391,0.685,0.651,���쐼,4.5,��
2020/04/15,06:40,0.681,0.976,0.648,1.184,0.834,0.393,0.683,0.651,��,4.1,��
2020/04/15,06:50,0.682,0.975,0.646,1.182,0.834,0.394,0.685,0.653,���k��,4.5,��
2020/04/15,07:00,0.680,0.979,0.647,1.183,0.834,0.392,0.685,0.654,���k��,4.3,��
2020/04/15,07:10,0.682,0.979,0.648,1.184,0.835,0.393,0.686,0.651,��,2.8,��
2020/04/15,07:20,0.681,0.978,0.647,1.186,0.834,0.393,0.686,0.652,�k��,1.7,��
2020/04/15,07:30,0.682,0.978,0.649,1.181,0.835,0.392,0.686,0.651,���k��,2.8,��
2020/04/15,07:40,0.683,0.979,0.649,1.185,0.834,0.393,0.687,0.652,���k��,4.0,��
2020/04/15,07:50,0.682,0.977,0.649,1.184,0.834,0.392,0.687,0.652,��,1.2,��
2020/04/15,08:00,0.682,0.979,0.649,1.182,0.835,0.391,0.687,0.654,���쓌,2.5,��
2020/04/15,08:10,0.683,0.977,0.653,1.184,0.837,0.391,0.687,0.654,��쓌,3.5,��
2020/04/15,08:20,0.683,0.976,0.653,1.184,0.836,0.390,0.686,0.654,��쓌,3.3,��
2020/04/15,08:30,0.683,0.975,0.653,1.184,0.837,0.391,0.686,0.652,��쓌,4.1,��
2020/04/15,08:40,0.684,0.971,0.654,1.184,0.834,0.389,0.683,0.654,��쓌,4.2,��
2020/04/15,08:50,0.684,0.975,0.652,1.184,0.836,0.392,0.686,0.651,��쓌,5.2,��
2020/04/15,09:00,0.685,0.973,0.652,1.185,0.839,0.390,0.685,0.652,��쓌,6.6,��
2020/04/15,09:10,0.683,0.971,0.652,1.183,0.837,0.392,0.683,0.652,��쓌,7.0,��
2020/04/15,09:20,0.684,0.970,0.649,1.186,0.839,0.391,0.686,0.650,��쓌,7.1,��
2020/04/15,09:30,0.684,0.971,0.648,1.186,0.838,0.392,0.684,0.651,��쓌,8.7,��
2020/04/15,09:40,0.684,0.972,0.652,1.186,0.838,0.391,0.684,0.649,��쓌,7.2,��
2020/04/15,09:50,0.684,0.971,0.651,1.185,0.837,0.392,0.685,0.650,��쓌,7.7,��
2020/04/15,10:00,0.684,0.973,0.650,1.186,0.836,0.391,0.685,0.649,��쓌,9.1,��
2020/04/15,10:10,0.685,0.973,0.649,1.187,0.837,0.392,0.686,0.649,��쓌,10.5,��
2020/04/15,10:20,0.686,0.975,0.650,1.184,0.837,0.392,0.686,0.650,��쓌,8.2,��
2020/04/15,10:30,0.685,0.972,0.647,1.188,0.838,0.392,0.684,0.650,��쓌,9.0,��
2020/04/15,10:40,0.686,0.976,0.647,1.187,0.836,0.393,0.684,0.650,��쓌,9.7,��
2020/04/15,10:50,0.686,0.976,0.647,1.186,0.837,0.391,0.685,0.651,��쓌,9.4,��
2020/04/15,11:00,0.686,0.976,0.648,1.187,0.837,0.393,0.686,0.650,��쓌,9.5,��
2020/04/15,11:10,0.686,0.977,0.649,1.187,0.838,0.392,0.687,0.650,��쓌,8.9,��
2020/04/15,11:20,0.686,0.978,0.649,1.189,0.837,0.394,0.687,0.651,��쓌,9.7,��
2020/04/15,11:30,0.685,0.975,0.650,1.188,0.839,0.394,0.686,0.650,��쓌,9.0,��
2020/04/15,11:40,0.685,0.980,0.650,1.187,0.838,0.396,0.688,0.651,��쓌,8.0,��
2020/04/15,11:50,0.685,0.979,0.648,1.189,0.838,0.395,0.687,0.652,��쓌,10.0,��
2020/04/15,12:00,0.683,0.983,0.649,1.188,0.839,0.393,0.688,0.651,��쓌,7.8,��
2020/04/15,12:10,0.686,0.982,0.648,1.189,0.838,0.395,0.688,0.649,��쓌,8.6,��
2020/04/15,12:20,0.685,0.980,0.649,1.189,0.841,0.394,0.686,0.650,��쓌,10.9,��
2020/04/15,12:30,0.686,0.983,0.648,1.191,0.839,0.394,0.687,0.650,��쓌,9.2,��
2020/04/15,12:40,0.686,0.984,0.649,1.190,0.841,0.396,0.688,0.652,��,6.5,��
2020/04/15,12:50,0.687,0.982,0.650,1.191,0.842,0.394,0.687,0.652,��,6.0,��
2020/04/15,13:00,0.687,0.981,0.652,1.190,0.842,0.395,0.688,0.652,��,5.7,��
2020/04/15,13:10,0.687,0.980,0.651,1.189,0.843,0.395,0.688,0.652,��쓌,4.7,��
2020/04/15,13:20,0.686,0.980,0.647,1.190,0.842,0.396,0.688,0.651,��,6.1,��
2020/04/15,13:30,0.687,0.980,0.648,1.189,0.841,0.396,0.689,0.652,��,7.2,��
2020/04/15,13:40,0.689,0.978,0.646,1.192,0.843,0.397,0.689,0.652,��,7.1,��
2020/04/15,13:50,0.686,0.980,0.646,1.189,0.844,0.397,0.688,0.651,��,5.6,��
2020/04/15,14:00,0.686,0.981,0.641,1.191,0.845,0.396,0.689,0.652,��,6.6,��
2020/04/15,14:10,0.686,0.983,0.637,1.191,0.842,0.394,0.687,0.651,��,7.6,��
2020/04/15,14:20,0.687,0.984,0.637,1.190,0.844,0.397,0.688,0.650,��,7.1,��
2020/04/15,14:30,0.687,0.984,0.646,1.191,0.844,0.396,0.689,0.652,��,8.4,��
2020/04/15,14:40,0.688,0.984,0.651,1.193,0.844,0.397,0.688,0.653,��,7.8,��
2020/04/15,14:50,0.690,0.982,0.649,1.192,0.847,0.396,0.690,0.652,��,5.5,��
2020/04/15,15:00,0.689,0.986,0.649,1.192,0.845,0.398,0.690,0.652,��,7.6,��
2020/04/15,15:10,0.687,0.981,0.648,1.188,0.846,0.395,0.689,0.652,��,7.5,��
2020/04/15,15:20,0.688,0.983,0.648,1.187,0.844,0.394,0.688,0.653,��쓌,8.3,��
2020/04/15,15:30,0.689,0.986,0.650,1.188,0.844,0.397,0.688,0.653,��,7.1,��
2020/04/15,15:40,0.689,0.986,0.646,1.186,0.842,0.396,0.688,0.651,��쓌,8.2,��
2020/04/15,15:50,0.690,0.989,0.649,1.189,0.844,0.397,0.687,0.650,��쓌,7.5,��
2020/04/15,16:00,0.689,0.987,0.651,1.190,0.846,0.397,0.688,0.652,��,6.5,��
2020/04/15,16:10,0.689,0.987,0.648,1.188,0.845,0.396,0.688,0.652,��,5.2,��
2020/04/15,16:20,0.692,0.987,0.649,1.191,0.843,0.398,0.690,0.651,��,3.8,��
2020/04/15,16:30,0.690,0.988,0.650,1.188,0.845,0.398,0.689,0.651,��,3.8,��
2020/04/15,16:40,0.689,0.988,0.650,1.188,0.847,0.398,0.689,0.652,��쐼,2.3,��
2020/04/15,16:50,0.690,0.988,0.649,1.190,0.845,0.398,0.687,0.652,��,3.5,��
2020/04/15,17:00,0.692,0.988,0.649,1.190,0.845,0.398,0.690,0.653,��쐼,2.0,��
2020/04/15,17:10,0.693,0.993,0.651,1.190,0.844,0.398,0.690,0.654,��쐼,2.0,��
2020/04/15,17:20,0.691,0.992,0.651,1.189,0.843,0.398,0.690,0.656,�쐼,3.0,��
2020/04/15,17:30,0.693,0.993,0.651,1.191,0.845,0.398,0.689,0.654,��,3.4,��
2020/04/15,17:40,0.693,0.990,0.649,1.192,0.843,0.397,0.688,0.655,��,2.0,��
2020/04/15,17:50,0.693,0.998,0.651,1.189,0.845,0.399,0.688,0.656,�k��,2.5,��
2020/04/15,18:00,0.694,0.993,0.651,1.191,0.843,0.398,0.689,0.656,�k�k��,3.4,��
2020/04/15,18:10,0.694,0.993,0.651,1.191,0.847,0.399,0.690,0.656,�k�k��,3.4,��
2020/04/15,18:20,0.693,0.992,0.651,1.193,0.848,0.398,0.689,0.654,�k��,2.5,��
2020/04/15,18:30,0.693,0.991,0.652,1.192,0.849,0.399,0.689,0.655,�k�k��,2.6,��
2020/04/15,18:40,0.692,0.990,0.651,1.191,0.848,0.397,0.689,0.654,�k��,2.0,��
2020/04/15,18:50,0.691,0.992,0.651,1.190,0.848,0.398,0.689,0.655,�k��,1.5,��
2020/04/15,19:00,0.691,0.989,0.653,1.191,0.849,0.396,0.690,0.654,�k�k��,2.9,��
2020/04/15,19:10,0.692,0.992,0.651,1.190,0.848,0.398,0.690,0.656,�k�k��,4.6,��
2020/04/15,19:20,0.691,0.992,0.652,1.193,0.845,0.398,0.690,0.656,�k,3.6,��
2020/04/15,19:30,0.691,0.991,0.652,1.192,0.848,0.397,0.690,0.655,�k�k��,4.3,��
2020/04/15,19:40,0.691,0.990,0.652,1.191,0.847,0.399,0.690,0.654,�k,4.5,��
2020/04/15,19:50,0.692,0.991,0.654,1.192,0.846,0.398,0.689,0.655,�k,3.9,��
2020/04/15,20:00,0.692,0.992,0.652,1.194,0.846,0.397,0.691,0.654,�k�k��,4.6,��
2020/04/15,20:10,0.691,0.992,0.651,1.192,0.844,0.397,0.689,0.655,�k�k��,2.5,��
2020/04/15,20:20,0.689,0.991,0.650,1.194,0.849,0.397,0.689,0.655,�k,1.9,��
2020/04/15,20:30,0.692,0.990,0.651,1.191,0.845,0.398,0.690,0.654,�k�k��,3.1,��
2020/04/15,20:40,0.690,0.993,0.651,1.191,0.847,0.396,0.691,0.655,�k��,3.4,��
2020/04/15,20:50,0.690,0.992,0.652,1.191,0.848,0.397,0.690,0.653,�k��,4.5,��
2020/04/15,21:00,0.691,0.991,0.652,1.192,0.847,0.396,0.690,0.655,�k�k��,5.4,��
2020/04/15,21:10,0.690,0.989,0.652,1.192,0.848,0.397,0.691,0.656,�k�k��,5.3,��
2020/04/15,21:20,0.691,0.989,0.653,1.190,0.847,0.395,0.690,0.656,�k�k��,5.3,��
2020/04/15,21:30,0.690,0.991,0.652,1.196,0.847,0.395,0.689,0.654,�k�k��,4.7,��
2020/04/15,21:40,0.691,0.989,0.651,1.194,0.847,0.395,0.690,0.653,�k�k��,4.7,��
2020/04/15,21:50,0.689,0.989,0.652,1.193,0.848,0.396,0.689,0.653,�k�k��,4.5,��
2020/04/15,22:00,0.689,0.991,0.652,1.192,0.847,0.397,0.690,0.653,�k�k��,4.2,��
2020/04/15,22:10,0.691,0.991,0.649,1.193,0.847,0.396,0.687,0.653,�k��,3.0,��
2020/04/15,22:20,0.690,0.987,0.651,1.192,0.847,0.397,0.689,0.653,�k�k��,2.5,��
2020/04/15,22:30,0.688,0.988,0.651,1.190,0.848,0.396,0.688,0.654,�k��,2.0,��
2020/04/15,22:40,0.690,0.987,0.650,1.193,0.848,0.395,0.689,0.654,���k��,1.9,��
2020/04/15,22:50,0.690,0.990,0.651,1.192,0.849,0.397,0.688,0.654,�k��,2.2,��
2020/04/15,23:00,0.689,0.989,0.651,1.192,0.846,0.396,0.687,0.654,�k�k��,2.6,��
2020/04/15,23:10,0.688,0.988,0.648,1.192,0.846,0.396,0.688,0.654,�k,3.4,��
2020/04/15,23:20,0.689,0.990,0.651,1.192,0.847,0.396,0.689,0.653,�k��,6.5,��
2020/04/15,23:30,0.688,0.986,0.651,1.193,0.847,0.396,0.687,0.653,�k��,6.7,��
2020/04/15,23:40,0.688,0.988,0.650,1.192,0.847,0.395,0.691,0.653,�k�k��,5.6,��
2020/04/15,23:50,0.688,0.989,0.650,1.192,0.848,0.393,0.687,0.653,�k�k��,4.0,��
